[[{"header":{"parameterUnit":"m.s-1","parameterCategory":1,"la1":30.2991,"la2":30.254,"lo1":-89.0895,"lo2":-89.0444,"dy":0.0017,"dx":0.0017,"nx":28,"ny":28,"refTime":"2024-08-04T09:00:00:Z","depth":0,"parameterNumber":2,"parameterNumberName":"U-component_of_WINDS"},"data":[0,0,0,0,0,0,0,0,0,0,0,0,0,0,0,0,0,0,0,0,0,0,0,0,0,0,0,0,0,0,0,0,0,0,0,0,0,0,0,0,0,0,0,0,0,0,0,0,0,0,0,0,0,0,0,0,0,0,-1.4232,-1.4232,0,-1.4226,-1.4226,-1.4226,-1.4106,-1.4103,-1.41,-1.4097,-1.4096,-1.4099,-1.4101,0,0,0,0,0,0,0,0,0,0,0,0,0,-1.4144,-1.4146,-1.4232,-1.4232,-1.4232,-1.4226,-1.4226,-1.4226,-1.4107,-1.4103,-1.41,-1.4096,-1.4095,-1.4098,-1.4102,0,0,0,0,0,0,0,0,0,0,0,0,0,-1.4165,-1.4147,-1.4232,-1.4172,-1.4166,-1.4226,-1.4226,-1.4226,-1.4108,-1.4103,-1.4099,-1.4094,-1.4094,-1.4098,-1.4102,-1.4221,0,0,-1.4115,-1.4117,0,0,0,0,0,0,0,0,-1.4164,-1.4168,-1.4181,-1.4176,-1.417,-1.4162,-1.4194,-1.4224,-1.4109,-1.413,-1.4097,-1.4092,-1.4122,-1.4124,-1.4133,-1.4221,-1.4221,-1.4116,-1.4118,-1.412,-1.4121,0,0,0,0,0,0,0,-1.4162,-1.4168,-1.423,-1.4181,-1.4175,-1.4146,-1.4144,-1.4199,-1.4152,-1.4128,-1.4119,-1.412,-1.4118,-1.4129,-1.4132,-1.4221,-1.4115,-1.4119,-1.4122,-1.4123,-1.4403,-1.4408,0,0,0,0,0,0,-1.4169,-1.4167,-1.423,-1.423,-1.4155,-1.4151,-1.4149,-1.417,-1.4151,-1.4144,-1.4124,-1.4114,-1.4124,-1.4127,-1.4131,-1.4267,-1.412,-1.4124,-1.4126,-1.4398,-1.4404,-1.4409,0,0,0,0,0,0,-1.4167,-1.4176,-1.423,-1.4196,-1.4201,-1.4158,-1.4182,-1.4172,-1.4182,-1.4148,-1.4139,-1.4143,-1.4121,-1.4125,-1.4199,-1.4266,-1.4126,-1.413,-1.4392,-1.44,-1.4407,-1.4542,0,0,0,0,0,0,-1.4165,-1.4176,-1.422,-1.4198,-1.4203,-1.4298,-1.4186,-1.4175,-1.4189,-1.4177,-1.4164,-1.4158,-1.4117,-1.4193,-1.4203,-1.4269,-1.4133,-1.4386,-1.4396,-1.4404,-1.4531,-1.4553,-1.4572,0,0,0,0,0,-1.4163,-1.426,-1.4223,-1.4231,-1.4257,-1.4302,-1.4305,-1.4255,-1.4195,-1.424,-1.4217,-1.4158,-1.4257,-1.4201,-1.4212,-1.428,-1.4382,-1.4393,-1.4404,-1.4522,-1.4549,-1.4571,0,0,0,0,0,0,-1.4294,-1.4256,-1.4215,-1.4307,-1.4308,-1.4281,-1.4336,-1.4285,-1.4304,-1.4292,-1.4231,-1.4229,-1.4311,-1.4303,-1.4242,-1.4393,-1.4309,-1.4322,-1.4396,-1.442,-1.444,-1.4441,-1.4136,0,0,0,0,0,-1.4333,-1.4371,-1.4336,-1.4422,-1.4424,-1.438,-1.4397,-1.4358,-1.4358,-1.4358,-1.4341,-1.4344,-1.4375,-1.4397,-1.4424,-1.4529,-1.4524,-1.4581,-1.4602,-1.4618,-1.4631,-1.4684,-1.4709,-1.4446,-1.4445,-1.4445,0,0,-1.4415,-1.4399,-1.4428,-1.4447,-1.4443,-1.4484,-1.4381,-1.443,-1.446,-1.4366,-1.4433,-1.4421,-1.442,-1.4509,-1.4547,-1.4504,-1.4702,-1.4632,-1.4646,-1.4649,-1.4698,-1.4723,-1.4746,-1.4453,-1.4452,-1.445,0,0,-1.4586,-1.4578,-1.4647,-1.4644,-1.4639,-1.4608,-1.4625,-1.4605,-1.4593,-1.4659,-1.4588,-1.4624,-1.4679,-1.4681,-1.4689,-1.4857,-1.4803,-1.4868,-1.4974,-1.5026,-1.5047,-1.5065,-1.5125,-1.5147,-1.488,-1.4881,-1.4881,0,-1.469,-1.4748,-1.469,-1.4742,-1.4752,-1.4666,-1.4736,-1.4737,-1.4742,-1.4751,-1.4702,-1.4769,-1.4762,-1.485,-1.489,-1.49,-1.4917,-1.487,-1.5049,-1.5066,-1.5082,-1.5138,-1.5161,-1.4889,-1.4888,-1.4887,-1.4886,0,-1.4875,-1.4916,-1.4973,-1.4976,-1.4993,-1.5054,-1.5006,-1.503,-1.4989,-1.4964,-1.5032,-1.502,-1.5043,-1.506,-1.5022,-1.5142,-1.5116,-1.5059,-1.4973,-1.5116,-1.5168,-1.5189,-1.49,-1.4897,-1.4895,-1.4893,0,0,-1.5131,-1.5098,-1.512,-1.512,-1.5106,-1.5137,-1.5194,-1.5213,-1.5235,-1.5241,-1.5287,-1.5334,-1.528,-1.529,-1.5251,-1.5297,-1.543,-1.5234,-1.5233,-1.5271,-1.5561,-1.5604,-1.5629,-1.5394,-1.5397,-1.5401,-1.5561,0,-1.5295,-1.5388,-1.5336,-1.5437,-1.5474,-1.5391,-1.544,-1.5438,-1.5416,-1.5444,-1.542,-1.5454,-1.5381,-1.5386,-1.5428,-1.5405,-1.5488,-1.5393,-1.5437,-1.5439,-1.5439,-1.5656,-1.5702,-1.5854,-1.5581,-1.5584,-1.5586,0,-1.55,-1.5511,-1.5615,-1.5591,-1.5605,-1.565,-1.5662,-1.569,-1.5685,-1.5666,-1.5675,-1.5624,-1.5678,-1.5592,-1.5666,-1.5603,-1.5618,-1.5609,-1.5613,-1.5616,-1.5522,-1.5665,-1.5901,-1.5924,-1.5618,-1.5615,-1.5613,0,-1.5675,-1.5716,-1.5782,-1.5785,-1.576,-1.5793,-1.5784,-1.5774,-1.5789,-1.58,-1.5809,-1.5828,-1.5838,-1.5854,-1.5809,-1.5751,-1.5889,-1.58,-1.5875,-1.5876,-1.5908,-1.5907,-1.615,-1.5918,-1.5918,-1.5917,-1.5917,0,-1.5864,-1.593,-1.586,-1.5902,-1.5973,-1.5913,-1.5987,-1.5969,-1.5961,-1.5997,-1.5928,-1.5965,-1.5903,-1.5934,-1.5899,-1.5965,-1.5971,-1.5957,-1.5947,-1.5963,-1.5965,-1.5972,-1.5961,-1.5923,-1.5922,-1.5921,-1.592,0,-1.6072,-1.6028,-1.6095,-1.6064,-1.6058,-1.6112,-1.6086,-1.6124,-1.6095,-1.6143,-1.615,-1.6107,-1.6139,-1.6095,-1.6124,-1.6101,-1.6191,-1.6165,-1.6192,-1.6185,-1.6261,-1.6255,-1.6518,-1.655,-1.6298,-1.63,-1.6302,0,-1.6196,-1.6244,-1.6218,-1.6236,-1.6231,-1.6262,-1.6275,-1.6217,-1.6234,-1.6231,-1.6269,-1.6294,-1.6311,-1.6366,-1.6338,-1.6359,-1.6333,-1.6424,-1.6336,-1.635,-1.6334,-1.6332,-1.6336,-1.6443,-1.6446,-1.6448,-1.645,0,-1.642,-1.6394,-1.6415,-1.6428,-1.6445,-1.6453,-1.6456,-1.6475,-1.6415,-1.6437,-1.6467,-1.6481,-1.6508,-1.6534,-1.6547,-1.6539,-1.6485,-1.6478,-1.6496,-1.6513,-1.6526,-1.6519,-1.6241,-1.6472,-1.647,-1.6468,-1.6467,-1.6466,-1.6589,-1.6627,-1.6614,-1.6639,-1.6634,-1.6638,-1.667,-1.6645,-1.6669,-1.6685,-1.6649,-1.6688,-1.668,-1.6692,-1.669,-1.672,-1.668,-1.6707,-1.6714,-1.6722,-1.6733,-1.6521,-1.6722,-1.6721,-1.6721,-1.672,-1.672,0,-1.6808,-1.6795,-1.6818,-1.6823,-1.6842,-1.6786,-1.6786,-1.6807,-1.6841,-1.6837,-1.6855,-1.6889,-1.6914,-1.6886,-1.6906,-1.6935,-1.6911,-1.6942,-1.694,-1.6939,-1.6767,-1.6749,-1.6962,-1.6962,-1.6962,-1.6961,-1.6961,-1.6961,-1.6925,-1.6987,-1.696,-1.7018,-1.7004,-1.704,-1.7045,-1.7048,-1.7044,-1.7085,-1.7104,-1.7084,-1.7071,-1.7089,-1.7109,-1.71,-1.7111,-1.7151,-1.7134,-1.6975,-1.6951,-1.6928,-1.6911,-1.7154,-1.7154,-1.7302,-1.7304,-1.7305]},{"header":{"parameterUnit":"m.s-1","parameterCategory":1,"la1":30.2991,"la2":30.254,"lo1":-89.0895,"lo2":-89.0444,"dy":0.0017,"dx":0.0017,"nx":28,"ny":28,"refTime":"2024-08-04T09:00:00:Z","depth":0,"parameterNumber":3,"parameterNumberName":"V-component_of_WINDS"},"data":[0,0,0,0,0,0,0,0,0,0,0,0,0,0,0,0,0,0,0,0,0,0,0,0,0,0,0,0,0,0,0,0,0,0,0,0,0,0,0,0,0,0,0,0,0,0,0,0,0,0,0,0,0,0,0,0,0,0,-2.6103,-2.6104,0,-2.6231,-2.6233,-2.6234,-2.6231,-2.6229,-2.6227,-2.6226,-2.6358,-2.6363,-2.6369,0,0,0,0,0,0,0,0,0,0,0,0,0,-2.5854,-2.5859,-2.6103,-2.6104,-2.6106,-2.6231,-2.6233,-2.6235,-2.6231,-2.6229,-2.6227,-2.6225,-2.6357,-2.6363,-2.6369,0,0,0,0,0,0,0,0,0,0,0,0,0,-2.597,-2.586,-2.6102,-2.6119,-2.6122,-2.6231,-2.6233,-2.6235,-2.6232,-2.6229,-2.6226,-2.6224,-2.6355,-2.6362,-2.637,-2.6471,0,0,-2.6394,-2.6397,0,0,0,0,0,0,0,0,-2.5964,-2.5979,-2.6115,-2.6118,-2.6121,-2.6212,-2.6194,-2.6314,-2.6232,-2.619,-2.6226,-2.6222,-2.6312,-2.6323,-2.6353,-2.6477,-2.6483,-2.6394,-2.6399,-2.6402,-2.6405,0,0,0,0,0,0,0,-2.5956,-2.5974,-2.6154,-2.6117,-2.6121,-2.612,-2.6134,-2.6217,-2.6264,-2.6193,-2.6193,-2.6209,-2.6313,-2.6346,-2.6356,-2.6485,-2.6394,-2.6401,-2.6406,-2.6409,-2.6698,-2.6701,0,0,0,0,0,0,-2.5944,-2.5967,-2.615,-2.6157,-2.6034,-2.6127,-2.6142,-2.6186,-2.6263,-2.6273,-2.6211,-2.6208,-2.6334,-2.6347,-2.6361,-2.6484,-2.6402,-2.641,-2.6414,-2.6695,-2.6699,-2.6702,0,0,0,0,0,0,-2.5939,-2.596,-2.6144,-2.6062,-2.6086,-2.6134,-2.6183,-2.619,-2.6222,-2.6277,-2.6285,-2.6235,-2.6332,-2.635,-2.6444,-2.6489,-2.6413,-2.642,-2.6692,-2.6696,-2.6701,-2.6732,0,0,0,0,0,0,-2.5931,-2.5958,-2.5997,-2.6063,-2.609,-2.6225,-2.6186,-2.6194,-2.6236,-2.6233,-2.6302,-2.6311,-2.6331,-2.6432,-2.6451,-2.6498,-2.6426,-2.6688,-2.6694,-2.6699,-2.6727,-2.6737,-2.6746,0,0,0,0,0,-2.5923,-2.6001,-2.5999,-2.6021,-2.614,-2.6227,-2.6243,-2.6265,-2.6239,-2.6279,-2.6314,-2.6308,-2.6481,-2.6442,-2.6463,-2.6513,-2.6685,-2.6692,-2.6699,-2.6723,-2.6735,-2.6746,0,0,0,0,0,0,-2.594,-2.601,-2.6009,-2.6111,-2.6163,-2.6227,-2.6277,-2.6277,-2.6338,-2.6333,-2.6358,-2.6374,-2.6468,-2.65,-2.6455,-2.6615,-2.658,-2.6591,-2.6591,-2.6603,-2.6612,-2.6602,-2.6433,0,0,0,0,0,-2.5955,-2.602,-2.6078,-2.6163,-2.6189,-2.6229,-2.6268,-2.628,-2.6336,-2.6358,-2.6399,-2.6453,-2.652,-2.6563,-2.6627,-2.6732,-2.6747,-2.6777,-2.6786,-2.6793,-2.6803,-2.6861,-2.6875,-2.6725,-2.6725,-2.6724,0,0,-2.5988,-2.6035,-2.6074,-2.6168,-2.621,-2.6277,-2.6247,-2.632,-2.637,-2.6369,-2.646,-2.6492,-2.6554,-2.6654,-2.67,-2.6683,-2.6848,-2.6802,-2.6807,-2.6813,-2.6869,-2.6884,-2.6896,-2.6729,-2.6728,-2.6728,0,0,-2.6082,-2.6124,-2.6199,-2.6242,-2.6305,-2.6331,-2.6349,-2.6413,-2.6434,-2.6525,-2.6526,-2.6586,-2.67,-2.6744,-2.6781,-2.6892,-2.6889,-2.6912,-2.696,-2.7016,-2.7028,-2.7039,-2.7079,-2.7092,-2.6921,-2.6922,-2.6922,0,-2.6116,-2.6216,-2.6238,-2.6311,-2.6352,-2.6353,-2.6429,-2.647,-2.6551,-2.658,-2.656,-2.6703,-2.6745,-2.6854,-2.6881,-2.6911,-2.6933,-2.6905,-2.7025,-2.7036,-2.7046,-2.7084,-2.7099,-2.6924,-2.6924,-2.6923,-2.6923,0,-2.6254,-2.6324,-2.6377,-2.6455,-2.6502,-2.6576,-2.6609,-2.6654,-2.6662,-2.669,-2.6783,-2.6833,-2.6907,-2.6934,-2.6943,-2.7046,-2.7034,-2.7019,-2.6984,-2.7062,-2.7098,-2.7113,-2.6927,-2.6926,-2.6926,-2.6925,0,0,-2.6363,-2.6452,-2.6471,-2.6506,-2.6577,-2.6631,-2.6705,-2.6777,-2.6816,-2.6872,-2.6935,-2.703,-2.7018,-2.706,-2.7074,-2.7123,-2.7207,-2.7103,-2.7104,-2.7121,-2.7324,-2.7334,-2.7351,-2.7206,-2.7209,-2.7211,-2.7319,0,-2.6465,-2.6596,-2.6618,-2.6733,-2.6798,-2.68,-2.6865,-2.6915,-2.6943,-2.7002,-2.7032,-2.71,-2.7078,-2.7103,-2.7152,-2.7187,-2.7249,-2.7179,-2.7265,-2.7268,-2.725,-2.737,-2.7382,-2.748,-2.7333,-2.7335,-2.7337,0,-2.6602,-2.6661,-2.6782,-2.6844,-2.6872,-2.6929,-2.6997,-2.7054,-2.711,-2.7127,-2.7174,-2.7182,-2.7259,-2.722,-2.7327,-2.728,-2.7316,-2.7338,-2.7343,-2.7352,-2.7307,-2.7383,-2.7512,-2.7527,-2.7359,-2.7358,-2.7356,0,-2.6669,-2.6779,-2.6866,-2.6897,-2.697,-2.7011,-2.7043,-2.7097,-2.7139,-2.7199,-2.7226,-2.7294,-2.7331,-2.7383,-2.7409,-2.7378,-2.7514,-2.7478,-2.7531,-2.753,-2.756,-2.7558,-2.7698,-2.7582,-2.7582,-2.7582,-2.7582,0,-2.6781,-2.6856,-2.6898,-2.6951,-2.7035,-2.7058,-2.714,-2.7172,-2.722,-2.728,-2.7286,-2.7342,-2.7373,-2.7434,-2.7455,-2.754,-2.7557,-2.7573,-2.7578,-2.7573,-2.7571,-2.7597,-2.7591,-2.7586,-2.7585,-2.7584,-2.7584,0,-2.6871,-2.6902,-2.6997,-2.7059,-2.7076,-2.7135,-2.7188,-2.724,-2.7267,-2.7343,-2.7362,-2.7405,-2.7477,-2.7508,-2.7596,-2.761,-2.7708,-2.7708,-2.7689,-2.7691,-2.7742,-2.7737,-2.7905,-2.7928,-2.7797,-2.7798,-2.7799,0,-2.6941,-2.6998,-2.7065,-2.7106,-2.7139,-2.7204,-2.7247,-2.7272,-2.7317,-2.7385,-2.743,-2.7501,-2.756,-2.7675,-2.7714,-2.7782,-2.7784,-2.7837,-2.7794,-2.7787,-2.7785,-2.7781,-2.7787,-2.7846,-2.7847,-2.7848,-2.7849,0,-2.7061,-2.7073,-2.7134,-2.7201,-2.7252,-2.7306,-2.7358,-2.7391,-2.7425,-2.7474,-2.7547,-2.7593,-2.7683,-2.7755,-2.7825,-2.7858,-2.786,-2.7862,-2.7878,-2.7874,-2.7861,-2.7869,-2.7711,-2.7858,-2.7857,-2.7857,-2.7856,-2.7856,-2.7143,-2.7194,-2.7249,-2.7317,-2.7359,-2.7408,-2.746,-2.7494,-2.7555,-2.763,-2.7642,-2.772,-2.7775,-2.7869,-2.7906,-2.7968,-2.7954,-2.7978,-2.7984,-2.7989,-2.7992,-2.785,-2.7981,-2.798,-2.798,-2.798,-2.798,0,-2.7264,-2.7299,-2.7361,-2.7435,-2.7488,-2.7484,-2.7542,-2.7587,-2.7656,-2.7707,-2.7764,-2.7849,-2.7918,-2.7962,-2.8032,-2.8073,-2.8076,-2.8091,-2.8088,-2.8096,-2.8,-2.7979,-2.8088,-2.8088,-2.8088,-2.8088,-2.8088,-2.8088,-2.7333,-2.7419,-2.7438,-2.7545,-2.758,-2.7656,-2.769,-2.7735,-2.7776,-2.787,-2.7927,-2.7955,-2.8004,-2.8078,-2.8141,-2.8152,-2.8178,-2.8194,-2.8205,-2.8114,-2.8103,-2.8092,-2.8073,-2.8199,-2.82,-2.8296,-2.8297,-2.8298]}]]